Meadville, PA

10:49 AM EST on December 06, 2019 (GMT -0500)
Port Meadville

Weather History for KGKJ - October, 2019

Change the Weather History Date:

Tuesday, October 8, 2019

  Actual Average Record
Temperature  
Mean Temperature 55 °F -  
Max Temperature 66 °F 61 °F 84 °F (1963)
Min Temperature 46 °F 41 °F 25 °F (1953)
Degree Days  
Heating Degree Days 10    
Growing Degree Days 5 (Base 50)    
Moisture  
Dew Point 47 °F    
Average Humidity 81    
Maximum Humidity 97    
Minimum Humidity 50    
Precipitation  
Precipitation 0.00 in - - ()
Sea Level Pressure  
Sea Level Pressure 30.27 in    
Wind  
Wind Speed 3 mph ()    
Max Wind Speed 10 mph    
Max Gust Speed -    
Visibility 8.4 miles    
Events      
Averages and records for this station are not official NWS values.
T = Trace of Precipitation, MM = Missing Value Source: Averaged Metar Reports

Daily Weather History Graph

Daily Weather History Graph

Search for Another Location

Airport or City:

Astronomy

Oct. 08, 2019 Rise Set
Actual Time 7:24 AM EDT 6:51 PM EDT
Civil Twilight 6:57 AM EDT 7:18 PM EDT
Nautical Twilight 6:25 AM EDT 7:51 PM EDT
Astronomical Twilight 5:52 AM EDT 8:23 PM EDT
Moon 4:54 PM EDT (10/8) 2:07 AM EDT (10/8)
Length of Visible Light 12h 21m
Length of Day
11h 26m
Waxing Gibbous, 77% of the Moon is Illuminated
Oct 8
Waxing Gibbous
Oct 13
Full
Oct 21
Last Quarter
Oct 27
New
Nov 4
First Quarter

Hourly Weather History & Observations

Time (EDT) Temp. Dew Point Humidity Pressure Visibility Wind Dir Wind Speed Gust Speed Precip Events Conditions
12:03 AM 50.0 °F 48.9 °F 96% 30.24 in 10.0 mi Calm Calm - N/A   Scattered Clouds
12:12 AM 50.0 °F 48.9 °F 96% 30.24 in 9.0 mi South 3.5 mph - N/A   Mostly Cloudy
12:53 AM 50.0 °F 48.9 °F 96% 30.25 in 6.0 mi South 3.5 mph - N/A   Overcast
1:53 AM 48.0 °F 46.9 °F 96% 30.25 in 6.0 mi Calm Calm - N/A   Overcast
2:53 AM 48.0 °F 46.9 °F 96% 30.25 in 5.0 mi Calm Calm - N/A   Overcast
3:53 AM 48.0 °F 46.9 °F 96% 30.25 in 5.0 mi Calm Calm - N/A   Overcast
4:53 AM 48.0 °F 46.9 °F 96% 30.26 in 5.0 mi Variable 3.5 mph - N/A   Overcast
5:53 AM 48.0 °F 46.9 °F 96% 30.27 in 4.0 mi East 3.5 mph - N/A   Overcast
6:53 AM 46.9 °F 46.0 °F 97% 30.30 in 4.0 mi ESE 4.6 mph - N/A   Overcast
7:53 AM 46.9 °F 46.0 °F 97% 30.30 in 5.0 mi Variable 3.5 mph - N/A   Overcast
8:53 AM 48.0 °F 46.0 °F 93% 30.31 in 4.0 mi East 4.6 mph - N/A   Overcast
9:53 AM 48.9 °F 48.0 °F 97% 30.32 in 10.0 mi ENE 3.5 mph - N/A   Overcast
10:19 AM 48.9 °F 48.0 °F 97% 30.31 in 10.0 mi Variable 4.6 mph - N/A   Overcast
10:53 AM 50.0 °F 48.0 °F 93% 30.32 in 10.0 mi Variable 3.5 mph - N/A   Overcast
11:19 AM 53.1 °F 48.9 °F 86% 30.31 in 10.0 mi Variable 5.8 mph - N/A   Mostly Cloudy
11:33 AM 54.0 °F 48.9 °F 83% 30.31 in 10.0 mi Variable 3.5 mph - N/A   Scattered Clouds
11:53 AM 57.0 °F 48.9 °F 74% 30.31 in 10.0 mi East 4.6 mph - N/A   Clear
12:53 PM 60.1 °F 46.0 °F 60% 30.30 in 10.0 mi Variable 3.5 mph - N/A   Clear
1:53 PM 62.1 °F 45.0 °F 53% 30.28 in 10.0 mi East 9.2 mph - N/A   Clear
2:53 PM 64.9 °F 46.0 °F 50% 30.26 in 10.0 mi NNE 8.1 mph - N/A   Mostly Cloudy
3:53 PM 63.0 °F 45.0 °F 52% 30.25 in 10.0 mi NE 10.4 mph - N/A   Mostly Cloudy
4:53 PM 63.0 °F 44.1 °F 50% 30.24 in 10.0 mi NE 5.8 mph - N/A   Scattered Clouds
5:53 PM 62.1 °F 46.0 °F 56% 30.24 in 10.0 mi NE 3.5 mph - N/A   Partly Cloudy
6:53 PM 57.0 °F 46.9 °F 69% 30.25 in 10.0 mi NNE 5.8 mph - N/A   Clear
7:53 PM 54.0 °F 46.0 °F 75% 30.26 in 10.0 mi NNE 5.8 mph - N/A   Clear
8:53 PM 52.0 °F 45.0 °F 77% 30.27 in 10.0 mi NNE 4.6 mph - N/A   Clear
9:53 PM 51.1 °F 45.0 °F 80% 30.27 in 10.0 mi NNE 3.5 mph - N/A   Clear
10:53 PM 51.1 °F 44.1 °F 77% 30.27 in 10.0 mi East 5.8 mph - N/A   Clear
11:53 PM 50.0 °F 43.0 °F 77% 30.26 in 10.0 mi East 4.6 mph - N/A   Clear